754  
ASUS44 KJAN 191010  
RWRMS  
 
MISSISSIPPI HOURLY WEATHER ROUNDUP  
NATIONAL WEATHER SERVICE JACKSON MS  
500 AM CDT THU OCT 19 2017  
 
NOTE: "FAIR: INDICATES FEW OR NO CLOUDS BELOW 12,000 FEET WITH NO  
SIGNIFICANT WEATHER AND/OR S TO VISIBILITY
.  
 
MSZ001>002-007>008-010>013-018>021-025>028-034>036-191100-  
NORTHWEST MISSISSIPPI  
 
CITY SKY/WX TMP DP RH WIND PRES REMARKS
 
BATESVILLE FAIR 40 39 96 CALM 30.22R FOG  
CLARKSDALE N/A 48 48 100 CALM 30.21R  
CLEVELAND FAIR 49 49 99 CALM 30.20R  
GREENWOOD CLEAR 46 44 93 NE5 30.22R  
GREENVILLE CLEAR 46 41 82 CALM 30.19R  
OXFORD FAIR 43 41 93 CALM 30.23R  
TUNICA N/A N/A N/A N/A CALM 30.21S  
WINONA FAIR 42 42 100 CALM 30.22R  

 
 
MSZ003>006-009-014>017-022>024-029>033-037>039-191100-  
NORTHEAST MISSISSIPPI  
 
CITY SKY/WX TMP DP RH WIND PRES REMARKS
 
COLUMBUS AFB CLEAR 43 42 99 CALM 30.22R  
CORINTH FAIR 43 41 93 CALM 30.23R  
GOLDN TRIANGLE CLEAR 45 43 93 CALM 30.23R  
STARKVILLE FAIR 43 41 93 CALM 30.24R  
TUPELO CLEAR 44 41 89 CALM 30.23R  

 
 
MSZ040-058-191100-  
CENTRAL MISSISSIPPI  
 
CITY SKY/WX TMP DP RH WIND PRES REMARKS
 
JACKSON INTL CLEAR 50 47 89 CALM 30.19R  
JACKSON HAWKNS CLEAR 50 49 96 CALM 30.20R  
MADISON N/A 46 46 100 CALM 30.19R FOG  
MERIDIAN KEY CLEAR 47 46 97 CALM 30.21R  
MERIDIAN NAS CLEAR 45 43 93 CALM 30.22R  
RAYMOND FOG 46 46 100 CALM 30.19R VSB 3/4  
VICKSBURG VKS SUNNY 50 48 93 S5 30.20R  

 
 
MSZ059>079-191100-  
SOUTH MISSISSIPPI  
 
CITY SKY/WX TMP DP RH WIND PRES REMARKS
 
HATTIESBURG CLEAR 49 49 100 CALM 30.19R  
LAUREL FAIR 47 47 100 NW3 30.20R  
MCCOMB CLEAR 52 48 86 CALM 30.17S  
NATCHEZ CLEAR 53 51 93 CALM 30.18R  
PINE BELT CLEAR 50 49 96 CALM 30.20R  

 
 
MSZ080>082-191100-  
COASTAL MISSISSIPPI  
 
CITY SKY/WX TMP DP RH WIND PRES REMARKS
 
BILOXI CLEAR 58 54 88 NE7 30.14R  
PASCAGOULA CLEAR 57 54 89 N5 30.15R  
GULFPORT PTCLDY 58 55 90 N3 30.14R  

 
 
LAZ007>009-015>016-023>026-191100-  
NORTHEAST LOUISIANA  
 
CITY SKY/WX TMP DP RH WIND PRES REMARKS
 
BASTROP FAIR 51 50 98 CALM 30.18S  
TALLULAH/VBURG CLEAR 47 47 100 CALM 30.19R  
VIDALIA N/A N/A N/A N/A MISG 30.16S  

 
 
 
CLICK HERE TO GO TO PREVIOUS BULLETINS.

The Nexlab MS Page Main Text Page